GFSNW_prec_precacc_273.txt.gz
Total_Precipitation_Accumulation
0.90 0.83 0.87 0.95 1.52 2.24 2.32 1.92 1.81 1.85 1.27 1.59 1.25 0.78 0.46 0.16 0.04 0.01 0.00 0.00 0.01 0.01 0.02 0.01 0.01 0.01 0.02 0.02 0.01 0.01 0.00 0.13 0.17 0.11 0.06 0.06 0.07 0.03 0.12 0.42 0.26 0.41 0.56 0.44
0.72 0.72 0.70 0.80 1.12 1.73 2.48 1.82 1.96 1.99 1.01 0.92 0.60 0.30 0.08 0.09 0.06 0.03 0.00 0.00 0.00 0.01 0.01 0.01 0.01 0.00 0.00 0.00 0.00 0.01 0.01 0.15 0.22 0.24 0.20 0.12 0.17 0.05 0.10 0.22 0.48 0.38 0.49 0.14
0.80 0.69 0.60 0.73 1.12 1.54 2.23 1.82 2.01 2.38 1.41 0.46 0.16 0.17 0.13 0.06 0.03 0.01 0.01 0.02 0.02 0.02 0.01 0.00 0.00 0.00 0.00 0.00 0.00 0.02 0.11 0.17 0.12 0.14 0.31 0.42 0.32 0.07 0.09 0.39 0.69 0.20 0.13 0.05
1.00 0.86 0.73 0.76 1.19 1.77 2.05 1.47 0.88 0.74 0.92 0.35 0.19 0.22 0.24 0.10 0.02 0.01 0.03 0.04 0.04 0.03 0.02 0.01 0.00 0.00 0.00 0.00 0.02 0.13 0.33 0.25 0.11 0.12 0.22 0.58 0.38 0.14 0.11 0.39 0.20 0.35 0.10 0.06
1.40 1.26 0.88 0.81 1.27 1.63 1.97 1.59 0.72 0.42 0.27 0.16 0.18 0.17 0.18 0.11 0.06 0.05 0.05 0.01 0.01 0.03 0.04 0.01 0.00 0.00 0.00 0.01 0.03 0.13 0.31 0.38 0.34 0.34 0.25 0.35 0.27 0.07 0.13 0.13 0.04 0.05 0.02 0.04
1.40 1.26 1.06 0.95 1.31 2.00 1.96 1.61 0.92 0.82 0.47 0.10 0.15 0.15 0.10 0.11 0.10 0.10 0.03 0.02 0.03 0.04 0.02 0.01 0.01 0.01 0.01 0.01 0.07 0.26 0.42 0.47 0.68 0.52 0.18 0.19 0.26 0.08 0.06 0.10 0.07 0.03 0.05 0.06
1.38 1.33 1.27 1.27 1.57 2.00 1.92 1.55 1.39 1.18 0.65 0.16 0.11 0.07 0.05 0.11 0.10 0.18 0.04 0.02 0.05 0.02 0.01 0.02 0.06 0.06 0.04 0.02 0.01 0.05 0.19 0.43 0.79 0.89 0.44 0.45 0.25 0.10 0.14 0.15 0.13 0.09 0.06 0.07
1.43 1.29 1.26 1.54 1.82 1.82 1.83 1.47 1.66 1.47 0.96 0.19 0.08 0.06 0.09 0.10 0.11 0.09 0.06 0.02 0.01 0.02 0.03 0.10 0.21 0.14 0.09 0.04 0.01 0.01 0.02 0.18 0.46 0.48 0.31 0.15 0.04 0.07 0.11 0.10 0.13 0.05 0.03 0.02
2.25 1.92 1.60 1.73 1.88 2.07 2.23 1.69 1.81 1.99 1.56 0.49 0.11 0.19 0.19 0.29 0.24 0.12 0.05 0.02 0.03 0.06 0.12 0.21 0.24 0.10 0.05 0.02 0.01 0.00 0.01 0.04 0.26 0.24 0.32 0.08 0.02 0.01 0.02 0.02 0.08 0.01 0.00 0.01
2.38 2.17 1.91 1.86 2.16 2.56 2.55 2.31 2.03 2.98 2.53 0.81 0.26 0.41 0.36 0.28 0.28 0.30 0.10 0.10 0.13 0.15 0.25 0.41 0.17 0.04 0.01 0.02 0.01 0.02 0.06 0.17 0.25 0.21 0.41 0.02 0.00 0.00 0.00 0.05 0.06 0.00 0.00 0.00
2.55 2.39 2.24 2.14 2.34 2.63 3.01 2.67 2.26 3.30 3.07 1.35 0.45 0.30 0.32 0.29 0.34 0.48 0.23 0.28 0.32 0.38 0.51 0.44 0.17 0.08 0.03 0.02 0.00 0.00 0.03 0.10 0.16 0.20 0.38 0.06 0.00 0.00 0.02 0.03 0.00 0.00 0.01 0.01
2.21 2.13 1.88 1.80 2.03 2.38 2.99 2.94 2.29 2.65 3.39 2.15 0.64 0.35 0.22 0.17 0.18 0.33 0.44 0.47 0.34 0.56 0.61 0.49 0.26 0.17 0.09 0.04 0.05 0.00 0.01 0.00 0.05 0.10 0.05 0.00 0.00 0.01 0.01 0.00 0.00 0.00 0.00 0.00
2.12 2.07 1.92 1.85 1.89 2.02 2.55 2.36 2.10 2.80 3.25 1.94 0.86 0.36 0.18 0.15 0.18 0.25 0.59 0.47 0.33 0.42 0.41 0.75 0.59 0.38 0.15 0.10 0.04 0.01 0.01 0.00 0.01 0.01 0.00 0.00 0.00 0.00 0.01 0.00 0.00 0.00 0.01 0.01
2.04 2.17 2.09 2.05 2.26 2.39 2.77 2.38 1.76 2.55 3.06 2.35 0.81 0.18 0.12 0.09 0.18 0.31 0.45 0.46 0.42 0.59 0.78 0.99 0.90 0.53 0.19 0.12 0.03 0.02 0.02 0.01 0.02 0.04 0.00 0.02 0.01 0.00 0.01 0.00 0.00 0.01 0.01 0.01
1.73 2.00 1.99 1.99 2.48 2.62 2.84 2.88 2.22 1.91 2.95 2.72 0.92 0.43 0.17 0.18 0.31 0.42 0.49 0.52 0.68 0.76 1.11 1.20 0.72 0.36 0.30 0.23 0.17 0.06 0.00 0.00 0.03 0.05 0.01 0.05 0.05 0.03 0.02 0.02 0.03 0.03 0.02 0.02
1.70 1.75 2.02 2.03 2.42 2.71 3.28 4.52 3.39 2.58 2.67 3.97 2.48 0.95 0.31 0.20 0.30 0.40 0.54 0.64 0.89 1.23 1.16 1.07 0.68 0.29 0.45 0.68 0.23 0.00 0.00 0.00 0.00 0.01 0.04 0.08 0.10 0.09 0.10 0.11 0.09 0.07 0.08 0.08
1.74 1.91 2.20 1.94 2.78 3.21 3.80 3.82 2.88 2.77 3.68 5.68 4.98 2.45 0.93 0.37 0.57 0.82 0.94 0.96 1.31 1.75 1.66 1.28 0.76 0.50 0.98 0.97 0.27 0.01 0.01 0.01 0.01 0.04 0.14 0.22 0.18 0.15 0.15 0.15 0.15 0.14 0.13 0.11
2.31 2.22 2.29 2.63 3.61 3.96 3.64 2.04 1.92 2.32 4.40 6.21 5.77 3.32 1.67 0.61 0.95 1.12 1.12 1.19 1.49 2.39 2.02 1.23 0.73 0.85 1.13 0.97 0.16 0.06 0.05 0.12 0.20 0.28 0.30 0.26 0.25 0.22 0.21 0.19 0.17 0.16 0.14 0.10
3.48 3.44 3.37 3.98 3.61 3.03 2.97 2.50 2.56 3.00 5.06 6.15 4.28 2.44 1.51 1.15 1.17 1.06 1.50 1.63 2.32 2.56 2.02 1.00 0.84 1.19 1.33 0.54 0.20 0.17 0.30 0.45 0.49 0.46 0.35 0.32 0.27 0.23 0.23 0.19 0.19 0.18 0.18 0.15
3.87 4.41 4.01 3.52 2.37 2.31 3.09 4.71 5.71 6.44 5.95 4.50 2.75 1.55 1.19 1.48 1.40 1.67 2.13 2.39 2.44 2.45 1.49 1.19 1.66 1.15 0.55 0.35 0.45 0.43 0.50 0.63 0.65 0.71 0.57 0.43 0.50 0.35 0.31 0.35 0.29 0.27 0.26 0.21
3.55 3.68 3.26 2.63 2.52 3.00 4.68 5.76 5.22 4.22 3.29 2.21 1.35 1.01 1.06 1.29 1.69 1.83 2.32 2.70 2.47 2.23 1.30 1.24 1.45 1.07 0.48 0.42 0.54 0.56 0.55 0.60 0.53 0.64 0.64 0.51 0.61 0.65 0.48 0.47 0.46 0.44 0.41 0.38
3.15 2.92 2.68 3.00 4.03 4.82 4.79 4.16 2.61 1.79 1.45 1.34 1.10 0.98 1.06 1.56 1.76 2.35 2.54 2.16 1.95 1.61 0.94 1.41 1.16 0.64 0.48 0.59 0.57 0.56 0.50 0.47 0.43 0.41 0.49 0.42 0.32 0.37 0.39 0.41 0.40 0.35 0.38 0.40
3.00 3.73 4.11 3.79 4.07 4.14 3.09 1.93 1.34 1.16 0.97 0.99 0.80 1.09 1.39 1.93 2.24 2.80 2.52 2.18 1.47 1.09 1.20 1.09 0.62 0.41 0.43 0.51 0.60 0.61 0.55 0.43 0.51 0.50 0.36 0.27 0.23 0.23 0.27 0.29 0.17 0.17 0.20 0.21
4.11 4.03 3.56 2.51 2.13 1.36 1.05 0.81 0.74 0.78 1.01 1.14 1.23 1.32 1.52 1.80 2.00 2.11 2.05 1.61 1.30 1.53 1.15 0.78 0.56 0.51 0.42 0.35 0.38 0.42 0.45 0.41 0.47 0.77 0.79 0.63 0.61 0.50 0.39 0.38 0.35 0.33 0.30 0.24
4.28 3.24 2.15 1.29 0.89 0.68 0.79 0.81 0.83 0.95 1.26 1.60 1.69 1.76 1.75 1.95 2.21 1.71 1.40 1.56 1.59 1.12 0.86 0.78 0.70 0.68 0.60 0.54 0.47 0.40 0.41 0.47 0.49 0.53 0.66 0.66 0.50 0.35 0.39 0.52 0.50 0.37 0.32 0.27
3.52 2.62 1.36 0.73 0.52 0.60 0.46 0.60 0.73 0.81 1.03 1.36 1.74 1.84 1.84 1.79 1.63 1.49 1.23 1.22 1.01 0.94 0.93 0.91 0.81 0.75 0.69 0.68 0.61 0.55 0.53 0.56 0.62 0.61 0.70 0.64 0.68 0.74 0.73 0.60 0.67 0.58 0.47 0.45
3.45 1.61 0.85 0.68 0.54 0.49 0.46 0.47 0.49 0.60 0.82 1.09 1.45 1.65 1.26 1.34 1.36 1.04 0.91 1.06 1.00 0.88 0.74 0.63 0.61 0.54 0.55 0.57 0.49 0.48 0.49 0.47 0.54 0.65 0.76 0.88 0.95 0.88 0.79 0.74 0.88 0.82 0.85 0.86

GFSNW_prec_precacc_276.txt.gz
Total_Precipitation_Accumulation
0.91 0.84 0.88 0.96 1.52 2.24 2.32 1.93 1.82 1.87 1.30 1.76 1.50 0.90 0.47 0.16 0.04 0.01 0.00 0.01 0.01 0.01 0.02 0.01 0.01 0.01 0.02 0.02 0.01 0.01 0.00 0.13 0.17 0.11 0.06 0.06 0.07 0.03 0.12 0.42 0.26 0.41 0.56 0.44
0.74 0.74 0.72 0.82 1.13 1.74 2.50 1.83 1.96 1.99 1.06 1.04 0.69 0.40 0.13 0.09 0.06 0.03 0.01 0.02 0.01 0.01 0.01 0.01 0.01 0.00 0.00 0.00 0.00 0.01 0.01 0.15 0.22 0.24 0.20 0.12 0.17 0.05 0.10 0.22 0.48 0.38 0.49 0.14
0.82 0.71 0.62 0.75 1.14 1.56 2.25 1.84 2.02 2.38 1.45 0.54 0.40 0.47 0.28 0.16 0.06 0.01 0.02 0.03 0.03 0.05 0.04 0.01 0.01 0.00 0.00 0.00 0.00 0.02 0.11 0.17 0.12 0.14 0.31 0.42 0.32 0.07 0.09 0.39 0.69 0.20 0.13 0.05
1.02 0.88 0.74 0.78 1.22 1.80 2.07 1.49 0.90 0.76 1.00 0.43 0.40 0.47 0.42 0.21 0.14 0.06 0.04 0.05 0.06 0.05 0.07 0.05 0.06 0.03 0.00 0.00 0.02 0.13 0.33 0.25 0.11 0.12 0.22 0.58 0.38 0.14 0.11 0.39 0.20 0.35 0.10 0.06
1.42 1.28 0.89 0.83 1.31 1.69 1.99 1.60 0.75 0.47 0.29 0.18 0.25 0.30 0.25 0.16 0.21 0.21 0.14 0.08 0.05 0.05 0.10 0.08 0.03 0.03 0.04 0.03 0.03 0.13 0.31 0.38 0.34 0.34 0.25 0.35 0.27 0.07 0.13 0.13 0.04 0.05 0.02 0.04
1.43 1.30 1.09 0.97 1.34 2.08 2.00 1.62 0.93 0.89 0.51 0.11 0.18 0.17 0.13 0.16 0.15 0.16 0.09 0.12 0.16 0.07 0.03 0.02 0.02 0.03 0.05 0.04 0.07 0.26 0.42 0.47 0.68 0.52 0.18 0.19 0.26 0.08 0.06 0.10 0.07 0.03 0.05 0.06
1.43 1.39 1.32 1.31 1.61 2.07 1.98 1.57 1.41 1.21 0.69 0.17 0.12 0.08 0.06 0.11 0.11 0.23 0.05 0.04 0.15 0.05 0.01 0.02 0.06 0.09 0.07 0.05 0.04 0.07 0.20 0.43 0.79 0.89 0.45 0.45 0.25 0.10 0.14 0.15 0.13 0.09 0.06 0.07
1.48 1.34 1.31 1.59 1.86 1.85 1.90 1.49 1.71 1.51 0.98 0.20 0.08 0.06 0.10 0.10 0.11 0.09 0.07 0.03 0.02 0.03 0.07 0.16 0.29 0.21 0.13 0.07 0.03 0.02 0.03 0.18 0.46 0.50 0.33 0.16 0.04 0.07 0.11 0.10 0.13 0.05 0.03 0.02
2.31 1.97 1.65 1.78 1.93 2.11 2.29 1.73 1.87 2.16 1.64 0.50 0.11 0.19 0.19 0.29 0.25 0.13 0.05 0.02 0.04 0.10 0.23 0.41 0.37 0.16 0.07 0.02 0.01 0.00 0.01 0.04 0.30 0.31 0.37 0.09 0.02 0.01 0.02 0.02 0.08 0.01 0.00 0.01
2.44 2.23 1.97 1.91 2.22 2.61 2.62 2.34 2.07 3.06 2.65 0.82 0.26 0.42 0.37 0.28 0.30 0.32 0.11 0.12 0.15 0.19 0.41 0.66 0.35 0.11 0.01 0.02 0.01 0.02 0.07 0.18 0.33 0.28 0.45 0.02 0.00 0.00 0.00 0.06 0.06 0.00 0.00 0.00
2.62 2.45 2.32 2.21 2.41 2.70 3.12 2.72 2.29 3.34 3.15 1.37 0.45 0.30 0.32 0.30 0.35 0.50 0.25 0.32 0.33 0.42 0.61 0.60 0.30 0.14 0.04 0.02 0.00 0.00 0.03 0.11 0.19 0.26 0.51 0.10 0.00 0.00 0.02 0.03 0.00 0.00 0.01 0.01
2.28 2.20 1.94 1.87 2.10 2.44 3.09 2.99 2.31 2.67 3.46 2.19 0.64 0.35 0.22 0.17 0.18 0.34 0.46 0.52 0.35 0.61 0.71 0.69 0.54 0.38 0.23 0.11 0.06 0.00 0.01 0.00 0.05 0.11 0.07 0.00 0.00 0.01 0.01 0.00 0.00 0.00 0.00 0.00
2.15 2.10 1.97 1.91 1.95 2.06 2.62 2.41 2.13 2.85 3.36 1.99 0.86 0.36 0.18 0.15 0.18 0.25 0.63 0.50 0.34 0.42 0.42 0.80 0.76 0.59 0.29 0.21 0.11 0.02 0.01 0.00 0.01 0.01 0.00 0.00 0.00 0.00 0.01 0.00 0.00 0.00 0.01 0.01
2.04 2.18 2.12 2.10 2.34 2.49 2.89 2.47 1.81 2.63 3.22 2.40 0.81 0.18 0.12 0.09 0.18 0.31 0.46 0.47 0.42 0.61 0.83 1.09 1.01 0.62 0.26 0.19 0.07 0.08 0.05 0.01 0.02 0.04 0.00 0.02 0.01 0.00 0.01 0.00 0.00 0.01 0.01 0.01
1.73 2.01 2.07 2.08 2.60 2.81 3.18 3.17 2.42 2.04 2.99 2.75 0.92 0.43 0.17 0.18 0.31 0.42 0.49 0.52 0.68 0.77 1.14 1.33 0.79 0.38 0.32 0.30 0.23 0.10 0.01 0.00 0.04 0.05 0.01 0.05 0.05 0.03 0.02 0.02 0.03 0.03 0.02 0.02
1.72 1.76 2.03 2.04 2.46 2.79 3.34 4.56 3.40 2.58 2.69 4.15 2.68 0.98 0.31 0.20 0.30 0.40 0.54 0.64 0.89 1.25 1.22 1.15 0.70 0.30 0.48 0.78 0.31 0.01 0.00 0.00 0.00 0.01 0.04 0.08 0.10 0.09 0.10 0.11 0.09 0.07 0.08 0.08
1.76 1.93 2.21 1.94 2.79 3.22 3.81 3.82 2.88 2.78 3.70 5.78 5.05 2.46 0.93 0.37 0.57 0.82 0.94 0.96 1.33 1.80 1.78 1.43 0.81 0.51 1.01 1.06 0.34 0.01 0.01 0.01 0.02 0.05 0.14 0.23 0.18 0.15 0.15 0.15 0.15 0.14 0.13 0.12
2.32 2.23 2.30 2.64 3.62 3.98 3.65 2.04 1.92 2.35 4.45 6.31 5.88 3.34 1.67 0.61 0.95 1.12 1.13 1.20 1.51 2.46 2.08 1.26 0.74 0.86 1.19 1.11 0.21 0.07 0.06 0.13 0.21 0.29 0.30 0.27 0.26 0.23 0.21 0.20 0.17 0.16 0.14 0.11
3.49 3.45 3.37 3.98 3.61 3.04 2.97 2.50 2.57 3.03 5.12 6.31 4.40 2.47 1.52 1.16 1.19 1.09 1.54 1.69 2.42 2.65 2.08 1.02 0.88 1.31 1.53 0.70 0.25 0.20 0.33 0.49 0.52 0.49 0.37 0.34 0.29 0.24 0.24 0.20 0.22 0.23 0.26 0.24
3.87 4.41 4.01 3.53 2.39 2.34 3.10 4.74 5.76 6.51 6.06 4.64 2.81 1.59 1.20 1.49 1.41 1.72 2.21 2.47 2.53 2.63 1.64 1.35 1.83 1.34 0.67 0.44 0.52 0.49 0.58 0.71 0.76 0.85 0.71 0.52 0.57 0.47 0.43 0.45 0.41 0.38 0.38 0.34
3.56 3.70 3.29 2.66 2.54 3.04 4.73 5.81 5.25 4.25 3.33 2.26 1.39 1.04 1.07 1.29 1.73 1.92 2.43 2.80 2.61 2.41 1.52 1.46 1.57 1.17 0.57 0.50 0.63 0.66 0.67 0.73 0.67 0.80 0.82 0.70 0.79 0.83 0.66 0.65 0.62 0.56 0.51 0.46
3.17 2.96 2.70 3.01 4.04 4.85 4.85 4.23 2.69 1.87 1.51 1.38 1.12 0.98 1.06 1.58 1.82 2.45 2.66 2.28 2.09 1.76 1.09 1.56 1.26 0.72 0.58 0.72 0.69 0.68 0.64 0.62 0.60 0.60 0.68 0.61 0.50 0.52 0.51 0.51 0.50 0.44 0.44 0.43
3.01 3.73 4.11 3.80 4.07 4.15 3.10 1.95 1.37 1.19 1.00 1.03 0.83 1.10 1.41 1.96 2.30 2.88 2.61 2.27 1.57 1.20 1.31 1.19 0.70 0.50 0.53 0.64 0.76 0.77 0.71 0.59 0.67 0.65 0.51 0.40 0.36 0.36 0.35 0.37 0.24 0.21 0.22 0.22
4.11 4.03 3.56 2.51 2.14 1.40 1.10 0.89 0.81 0.83 1.05 1.18 1.29 1.38 1.57 1.85 2.05 2.17 2.12 1.68 1.34 1.57 1.21 0.86 0.64 0.60 0.53 0.47 0.50 0.56 0.60 0.56 0.60 0.89 0.90 0.73 0.68 0.57 0.45 0.41 0.37 0.34 0.30 0.24
4.28 3.24 2.15 1.30 0.92 0.70 0.81 0.84 0.86 0.99 1.30 1.65 1.75 1.84 1.84 2.01 2.27 1.75 1.43 1.58 1.61 1.15 0.93 0.86 0.78 0.77 0.70 0.64 0.57 0.50 0.51 0.56 0.58 0.61 0.72 0.71 0.54 0.37 0.40 0.52 0.50 0.37 0.32 0.27
3.52 2.62 1.36 0.73 0.52 0.60 0.46 0.60 0.73 0.82 1.05 1.40 1.79 1.88 1.86 1.82 1.67 1.51 1.25 1.24 1.05 1.00 1.01 0.99 0.89 0.84 0.78 0.77 0.70 0.63 0.61 0.62 0.68 0.66 0.73 0.65 0.68 0.74 0.73 0.60 0.67 0.58 0.47 0.45
3.45 1.62 0.85 0.68 0.55 0.49 0.46 0.47 0.49 0.60 0.83 1.10 1.45 1.66 1.27 1.37 1.37 1.07 0.94 1.10 1.06 0.94 0.80 0.70 0.68 0.61 0.62 0.63 0.55 0.52 0.51 0.49 0.55 0.65 0.76 0.88 0.95 0.88 0.79 0.74 0.88 0.82 0.85 0.86

GFSNW_prec_precacc_282.txt.gz
Total_Precipitation_Accumulation
0.93 0.86 0.90 0.99 1.57 2.30 2.36 1.94 1.82 1.87 1.30 1.77 1.60 1.16 0.72 0.27 0.07 0.03 0.08 0.08 0.06 0.10 0.08 0.06 0.02 0.01 0.02 0.02 0.01 0.01 0.00 0.13 0.17 0.11 0.06 0.06 0.07 0.03 0.12 0.42 0.26 0.41 0.56 0.44
0.77 0.77 0.76 0.87 1.19 1.85 2.64 1.91 1.96 1.99 1.08 1.09 0.78 0.59 0.30 0.31 0.24 0.16 0.25 0.22 0.17 0.17 0.09 0.12 0.03 0.00 0.00 0.00 0.00 0.01 0.01 0.15 0.22 0.24 0.20 0.12 0.17 0.05 0.10 0.22 0.48 0.38 0.49 0.14
0.87 0.76 0.68 0.82 1.21 1.67 2.46 2.02 2.05 2.38 1.46 0.60 0.51 0.57 0.31 0.23 0.19 0.32 0.23 0.28 0.28 0.30 0.16 0.09 0.15 0.02 0.01 0.00 0.00 0.02 0.12 0.17 0.12 0.14 0.31 0.42 0.32 0.07 0.09 0.39 0.69 0.20 0.13 0.05
1.07 0.94 0.80 0.85 1.31 1.98 2.47 1.79 0.95 0.77 1.00 0.43 0.41 0.50 0.49 0.25 0.28 0.23 0.30 0.28 0.24 0.37 0.39 0.18 0.18 0.12 0.04 0.01 0.02 0.16 0.40 0.26 0.11 0.12 0.22 0.58 0.38 0.14 0.11 0.39 0.20 0.35 0.10 0.06
1.47 1.35 0.96 0.91 1.41 1.85 2.37 1.90 0.81 0.49 0.29 0.18 0.25 0.31 0.30 0.20 0.34 0.28 0.33 0.31 0.19 0.20 0.35 0.32 0.26 0.23 0.19 0.18 0.12 0.16 0.36 0.43 0.34 0.34 0.25 0.35 0.27 0.07 0.13 0.13 0.04 0.05 0.02 0.04
1.48 1.37 1.17 1.05 1.44 2.29 2.50 1.90 1.04 1.00 0.54 0.11 0.18 0.17 0.16 0.18 0.16 0.18 0.13 0.15 0.23 0.13 0.10 0.10 0.07 0.08 0.20 0.29 0.27 0.43 0.51 0.51 0.69 0.53 0.18 0.19 0.26 0.08 0.06 0.10 0.07 0.03 0.05 0.06
1.48 1.45 1.39 1.40 1.72 2.30 2.45 2.05 1.73 1.50 0.77 0.17 0.12 0.08 0.06 0.12 0.11 0.24 0.05 0.04 0.17 0.06 0.03 0.06 0.07 0.10 0.10 0.12 0.12 0.16 0.32 0.52 0.91 1.00 0.47 0.54 0.26 0.10 0.14 0.15 0.13 0.09 0.06 0.07
1.52 1.39 1.38 1.67 1.97 2.03 2.28 1.96 2.05 1.72 1.04 0.20 0.08 0.06 0.10 0.10 0.11 0.10 0.07 0.03 0.02 0.04 0.09 0.24 0.37 0.29 0.22 0.12 0.06 0.05 0.07 0.25 0.64 0.66 0.43 0.22 0.05 0.07 0.11 0.10 0.13 0.05 0.03 0.02
2.35 2.03 1.72 1.86 2.03 2.29 2.66 2.23 2.18 2.42 1.85 0.53 0.11 0.19 0.19 0.29 0.25 0.13 0.05 0.02 0.04 0.13 0.32 0.58 0.63 0.36 0.25 0.16 0.07 0.02 0.03 0.11 0.47 0.55 0.54 0.21 0.03 0.01 0.02 0.02 0.08 0.01 0.00 0.01
2.49 2.30 2.03 1.97 2.32 2.84 2.92 2.65 2.30 3.32 2.84 0.84 0.26 0.42 0.37 0.29 0.30 0.33 0.11 0.13 0.17 0.25 0.48 0.74 0.44 0.22 0.16 0.27 0.26 0.14 0.12 0.27 0.56 0.43 0.56 0.06 0.00 0.00 0.00 0.07 0.07 0.00 0.00 0.00
2.68 2.50 2.36 2.32 2.57 2.83 3.28 2.91 2.47 3.68 3.43 1.40 0.45 0.30 0.32 0.30 0.36 0.51 0.25 0.34 0.34 0.47 0.75 0.72 0.40 0.33 0.31 0.23 0.20 0.26 0.23 0.21 0.27 0.34 0.70 0.18 0.00 0.00 0.02 0.03 0.00 0.00 0.01 0.01
2.31 2.22 1.98 1.92 2.17 2.52 3.22 3.15 2.40 2.80 3.59 2.23 0.64 0.35 0.22 0.17 0.18 0.34 0.47 0.55 0.36 0.64 0.80 0.86 0.74 0.60 0.40 0.35 0.30 0.20 0.31 0.31 0.36 0.32 0.15 0.01 0.00 0.01 0.01 0.00 0.00 0.00 0.00 0.00
2.17 2.13 2.01 1.97 2.00 2.12 2.74 2.60 2.26 3.00 3.56 2.06 0.87 0.36 0.18 0.15 0.18 0.25 0.66 0.51 0.34 0.43 0.44 0.90 0.86 0.69 0.42 0.28 0.15 0.14 0.20 0.22 0.20 0.20 0.04 0.01 0.00 0.00 0.01 0.00 0.00 0.00 0.01 0.01
2.06 2.20 2.16 2.14 2.37 2.56 3.03 2.66 2.02 2.97 3.59 2.56 0.82 0.18 0.12 0.09 0.18 0.31 0.47 0.47 0.42 0.61 0.87 1.25 1.18 0.71 0.30 0.23 0.12 0.16 0.11 0.05 0.05 0.08 0.02 0.03 0.01 0.01 0.01 0.00 0.00 0.01 0.01 0.01
1.76 2.04 2.10 2.11 2.63 2.85 3.22 3.29 2.60 2.33 3.49 3.12 0.94 0.43 0.17 0.18 0.31 0.42 0.49 0.52 0.69 0.78 1.25 1.50 0.85 0.39 0.35 0.31 0.25 0.11 0.02 0.02 0.07 0.07 0.02 0.07 0.06 0.03 0.02 0.02 0.03 0.03 0.02 0.02
1.75 1.80 2.05 2.06 2.49 2.83 3.35 4.56 3.41 2.60 2.75 4.23 2.70 0.98 0.31 0.20 0.30 0.40 0.55 0.64 0.90 1.29 1.32 1.22 0.73 0.30 0.53 0.83 0.32 0.02 0.00 0.00 0.01 0.02 0.04 0.08 0.11 0.09 0.10 0.11 0.10 0.09 0.10 0.09
1.78 1.95 2.23 1.96 2.81 3.25 3.81 3.82 2.90 2.82 3.74 5.84 5.06 2.46 0.93 0.37 0.57 0.82 0.96 0.97 1.34 1.85 1.88 1.50 0.82 0.53 1.19 1.28 0.45 0.04 0.01 0.01 0.02 0.06 0.17 0.25 0.19 0.17 0.16 0.15 0.15 0.14 0.13 0.12
2.33 2.23 2.31 2.65 3.64 4.00 3.67 2.06 1.96 2.42 4.51 6.35 5.90 3.35 1.68 0.61 0.95 1.13 1.13 1.21 1.56 2.64 2.23 1.37 0.79 0.97 1.39 1.37 0.27 0.07 0.06 0.13 0.21 0.30 0.32 0.31 0.31 0.33 0.31 0.27 0.22 0.18 0.16 0.13
3.49 3.45 3.38 3.98 3.62 3.05 2.98 2.50 2.58 3.10 5.22 6.35 4.45 2.50 1.54 1.17 1.19 1.09 1.56 1.76 2.56 2.80 2.30 1.21 1.15 1.63 1.83 0.86 0.29 0.21 0.34 0.51 0.54 0.51 0.42 0.41 0.35 0.31 0.32 0.32 0.37 0.40 0.46 0.44
3.87 4.42 4.02 3.53 2.39 2.35 3.11 4.75 5.81 6.63 6.34 4.93 2.96 1.65 1.26 1.49 1.42 1.74 2.26 2.59 2.73 2.97 1.98 1.64 2.10 1.52 0.78 0.50 0.56 0.53 0.60 0.73 0.79 0.89 0.75 0.58 0.66 0.58 0.59 0.64 0.61 0.58 0.62 0.61
3.56 3.71 3.30 2.66 2.54 3.04 4.74 5.84 5.34 4.35 3.46 2.36 1.44 1.09 1.09 1.30 1.75 1.95 2.50 2.96 2.82 2.65 1.69 1.63 1.77 1.30 0.65 0.56 0.68 0.71 0.71 0.77 0.72 0.86 0.90 0.83 0.98 1.05 0.88 0.89 0.89 0.87 0.82 0.75
3.18 2.97 2.71 3.01 4.04 4.85 4.85 4.25 2.74 1.94 1.57 1.41 1.17 1.00 1.07 1.58 1.87 2.54 2.76 2.43 2.25 1.91 1.20 1.68 1.36 0.80 0.68 0.81 0.78 0.78 0.74 0.73 0.70 0.71 0.82 0.78 0.70 0.75 0.76 0.80 0.80 0.72 0.70 0.67
3.01 3.74 4.11 3.80 4.07 4.15 3.11 1.96 1.38 1.22 1.02 1.07 0.89 1.13 1.42 1.99 2.39 2.98 2.72 2.37 1.69 1.29 1.35 1.26 0.82 0.62 0.65 0.77 0.91 0.96 0.90 0.78 0.85 0.84 0.72 0.61 0.59 0.63 0.60 0.63 0.50 0.45 0.43 0.42
4.11 4.03 3.56 2.51 2.14 1.40 1.10 0.90 0.84 0.85 1.08 1.22 1.32 1.42 1.62 1.95 2.16 2.25 2.19 1.75 1.39 1.60 1.25 0.94 0.75 0.73 0.66 0.63 0.70 0.75 0.79 0.76 0.79 1.11 1.11 0.94 0.89 0.80 0.69 0.63 0.59 0.51 0.45 0.39
4.28 3.24 2.15 1.30 0.92 0.70 0.81 0.84 0.86 0.99 1.32 1.68 1.78 1.87 1.90 2.05 2.30 1.77 1.47 1.60 1.63 1.19 0.98 0.93 0.89 0.91 0.85 0.79 0.72 0.66 0.67 0.72 0.72 0.78 0.87 0.86 0.69 0.50 0.53 0.66 0.63 0.47 0.41 0.34
3.52 2.62 1.36 0.73 0.52 0.60 0.46 0.60 0.73 0.82 1.06 1.42 1.82 1.89 1.87 1.83 1.67 1.52 1.26 1.25 1.08 1.05 1.07 1.06 0.97 0.93 0.90 0.89 0.83 0.77 0.74 0.75 0.79 0.76 0.82 0.74 0.76 0.81 0.80 0.66 0.72 0.62 0.50 0.47
3.45 1.62 0.85 0.68 0.55 0.50 0.46 0.47 0.49 0.60 0.84 1.10 1.46 1.66 1.27 1.38 1.37 1.07 0.95 1.13 1.11 0.99 0.86 0.76 0.75 0.69 0.70 0.71 0.63 0.60 0.57 0.52 0.56 0.66 0.77 0.89 0.96 0.89 0.79 0.74 0.89 0.82 0.85 0.86

GFSNW_prec_precacc_288.txt.gz
Total_Precipitation_Accumulation
0.94 0.87 0.92 1.01 1.60 2.36 2.43 2.00 1.89 1.87 1.30 1.77 1.61 1.22 0.84 0.27 0.08 0.04 0.13 0.13 0.16 0.17 0.14 0.16 0.13 0.08 0.12 0.15 0.22 0.08 0.01 0.13 0.17 0.11 0.06 0.06 0.07 0.03 0.12 0.42 0.26 0.41 0.56 0.44
0.78 0.78 0.77 0.89 1.23 1.94 2.81 2.28 2.05 1.99 1.08 1.09 0.78 0.59 0.31 0.31 0.25 0.17 0.29 0.26 0.24 0.18 0.15 0.34 0.18 0.26 0.21 0.13 0.14 0.20 0.09 0.28 0.31 0.30 0.21 0.13 0.17 0.05 0.10 0.22 0.48 0.38 0.49 0.14
0.88 0.77 0.69 0.83 1.24 1.75 2.64 2.32 2.22 2.39 1.46 0.60 0.51 0.58 0.31 0.23 0.19 0.33 0.24 0.29 0.31 0.31 0.21 0.21 0.42 0.30 0.36 0.31 0.20 0.17 0.33 0.34 0.16 0.17 0.32 0.42 0.32 0.07 0.09 0.39 0.69 0.20 0.13 0.05
1.08 0.96 0.82 0.86 1.34 2.04 2.57 2.04 1.13 0.78 1.02 0.43 0.42 0.53 0.52 0.26 0.28 0.23 0.30 0.29 0.25 0.37 0.41 0.20 0.24 0.28 0.28 0.24 0.46 0.39 0.61 0.37 0.14 0.15 0.23 0.59 0.38 0.14 0.11 0.39 0.20 0.35 0.10 0.06
1.48 1.37 0.97 0.93 1.45 1.90 2.42 2.06 1.01 0.66 0.37 0.19 0.26 0.34 0.36 0.21 0.34 0.28 0.33 0.31 0.19 0.20 0.36 0.35 0.29 0.25 0.22 0.29 0.40 0.58 0.71 0.59 0.39 0.40 0.28 0.39 0.29 0.08 0.13 0.13 0.04 0.05 0.02 0.04
1.49 1.38 1.19 1.07 1.50 2.37 2.68 2.05 1.19 1.28 0.69 0.13 0.23 0.21 0.19 0.18 0.16 0.18 0.13 0.15 0.23 0.13 0.10 0.10 0.07 0.08 0.21 0.29 0.30 0.59 0.90 0.84 0.91 0.64 0.21 0.29 0.40 0.09 0.06 0.10 0.07 0.03 0.05 0.06
1.49 1.47 1.41 1.42 1.76 2.38 2.59 2.20 1.86 1.76 0.91 0.20 0.14 0.11 0.10 0.12 0.11 0.25 0.05 0.04 0.17 0.06 0.03 0.06 0.07 0.10 0.10 0.13 0.13 0.18 0.45 0.71 1.09 1.21 0.65 0.73 0.31 0.10 0.14 0.16 0.13 0.09 0.06 0.07
1.53 1.40 1.40 1.70 2.01 2.09 2.36 2.03 2.16 1.98 1.23 0.22 0.09 0.10 0.13 0.10 0.11 0.10 0.07 0.03 0.02 0.04 0.09 0.24 0.37 0.29 0.24 0.13 0.06 0.07 0.17 0.41 0.86 0.78 0.56 0.32 0.06 0.08 0.11 0.10 0.13 0.05 0.03 0.02
2.36 2.04 1.74 1.89 2.08 2.35 2.73 2.28 2.26 2.60 2.03 0.56 0.14 0.23 0.19 0.29 0.25 0.13 0.05 0.02 0.04 0.13 0.32 0.59 0.64 0.37 0.27 0.18 0.08 0.03 0.08 0.31 0.83 0.82 0.77 0.32 0.09 0.02 0.03 0.04 0.09 0.02 0.00 0.01
2.50 2.32 2.06 2.00 2.36 2.91 2.99 2.67 2.36 3.42 2.98 0.85 0.26 0.43 0.38 0.29 0.30 0.33 0.11 0.13 0.17 0.25 0.48 0.76 0.48 0.28 0.19 0.29 0.30 0.21 0.25 0.41 0.72 0.56 0.72 0.19 0.08 0.03 0.05 0.17 0.14 0.03 0.00 0.00
2.69 2.52 2.39 2.36 2.61 2.89 3.34 2.93 2.49 3.78 3.57 1.41 0.45 0.30 0.32 0.30 0.36 0.52 0.26 0.37 0.34 0.47 0.78 0.85 0.44 0.38 0.31 0.23 0.25 0.38 0.40 0.52 0.55 0.55 0.88 0.36 0.11 0.12 0.20 0.21 0.07 0.04 0.01 0.01
2.33 2.24 2.02 1.98 2.23 2.57 3.29 3.17 2.40 2.87 3.79 2.26 0.64 0.35 0.22 0.17 0.18 0.34 0.48 0.57 0.36 0.64 0.80 0.87 0.74 0.61 0.41 0.35 0.33 0.25 0.52 0.64 0.72 0.58 0.54 0.40 0.31 0.38 0.40 0.30 0.17 0.11 0.05 0.01
2.18 2.15 2.03 2.01 2.04 2.16 2.80 2.62 2.26 3.01 3.59 2.09 0.88 0.36 0.18 0.15 0.18 0.25 0.67 0.51 0.34 0.43 0.44 0.91 0.89 0.72 0.45 0.30 0.18 0.17 0.29 0.33 0.25 0.25 0.12 0.09 0.22 0.24 0.23 0.27 0.24 0.18 0.11 0.07
2.07 2.21 2.18 2.17 2.40 2.58 3.06 2.67 2.02 2.98 3.66 2.63 0.82 0.18 0.12 0.09 0.18 0.31 0.47 0.47 0.42 0.62 0.88 1.30 1.22 0.72 0.31 0.24 0.14 0.18 0.13 0.07 0.07 0.09 0.05 0.05 0.07 0.07 0.14 0.12 0.12 0.14 0.11 0.10
1.76 2.05 2.11 2.13 2.65 2.86 3.22 3.29 2.60 2.33 3.52 3.16 0.94 0.43 0.17 0.18 0.31 0.42 0.49 0.52 0.69 0.81 1.37 1.56 0.87 0.40 0.35 0.32 0.28 0.16 0.06 0.08 0.11 0.08 0.03 0.11 0.07 0.06 0.06 0.04 0.05 0.06 0.07 0.12
1.75 1.81 2.05 2.07 2.50 2.83 3.35 4.56 3.41 2.60 2.75 4.24 2.70 0.98 0.31 0.20 0.30 0.40 0.55 0.65 0.90 1.36 1.42 1.27 0.75 0.33 0.58 0.88 0.38 0.06 0.01 0.02 0.04 0.05 0.04 0.10 0.12 0.10 0.11 0.12 0.10 0.11 0.15 0.17
1.79 1.95 2.23 1.96 2.81 3.25 3.82 3.83 2.91 2.84 3.76 5.85 5.07 2.46 0.93 0.37 0.57 0.82 0.96 0.97 1.34 1.90 2.01 1.62 0.94 0.68 1.40 1.47 0.56 0.06 0.01 0.01 0.02 0.07 0.18 0.26 0.19 0.17 0.16 0.16 0.16 0.15 0.16 0.17
2.33 2.23 2.31 2.65 3.64 4.00 3.67 2.06 1.96 2.43 4.53 6.37 5.91 3.35 1.68 0.61 0.96 1.13 1.13 1.21 1.61 2.83 2.47 1.59 0.94 1.10 1.53 1.48 0.30 0.08 0.06 0.13 0.21 0.30 0.33 0.32 0.31 0.33 0.32 0.28 0.23 0.19 0.17 0.18
3.49 3.45 3.38 3.98 3.62 3.05 2.98 2.50 2.59 3.11 5.26 6.39 4.48 2.56 1.56 1.17 1.19 1.09 1.56 1.78 2.69 2.97 2.42 1.36 1.25 1.69 1.88 0.91 0.32 0.22 0.35 0.54 0.57 0.51 0.42 0.41 0.35 0.31 0.32 0.32 0.38 0.41 0.48 0.49
3.87 4.42 4.02 3.53 2.39 2.35 3.11 4.75 5.81 6.66 6.41 5.01 3.03 1.69 1.27 1.49 1.42 1.74 2.26 2.60 2.87 3.12 2.05 1.68 2.12 1.57 0.83 0.56 0.61 0.57 0.63 0.76 0.82 0.92 0.78 0.60 0.67 0.59 0.60 0.67 0.63 0.61 0.67 0.69
3.56 3.71 3.30 2.66 2.54 3.04 4.74 5.84 5.34 4.36 3.47 2.37 1.46 1.10 1.09 1.30 1.76 1.96 2.52 3.03 2.88 2.68 1.71 1.64 1.78 1.31 0.68 0.58 0.70 0.73 0.73 0.80 0.75 0.92 0.95 0.88 1.03 1.09 0.91 0.93 0.94 0.94 0.90 0.85
3.18 2.97 2.71 3.01 4.04 4.85 4.85 4.25 2.74 1.94 1.57 1.42 1.17 1.00 1.07 1.59 1.88 2.60 2.85 2.49 2.26 1.93 1.20 1.68 1.36 0.82 0.70 0.84 0.82 0.82 0.80 0.79 0.76 0.77 0.88 0.85 0.76 0.82 0.82 0.86 0.87 0.80 0.80 0.79
3.01 3.74 4.11 3.80 4.07 4.15 3.11 1.96 1.38 1.22 1.02 1.08 0.89 1.13 1.42 1.99 2.42 3.08 2.74 2.37 1.70 1.30 1.35 1.26 0.84 0.64 0.67 0.81 0.95 1.01 0.97 0.86 0.93 0.93 0.82 0.71 0.70 0.72 0.68 0.72 0.62 0.57 0.55 0.58
4.11 4.03 3.56 2.51 2.14 1.41 1.11 0.91 0.84 0.85 1.09 1.22 1.33 1.42 1.63 1.97 2.18 2.27 2.20 1.76 1.39 1.60 1.25 0.95 0.77 0.75 0.70 0.67 0.75 0.80 0.85 0.84 0.89 1.22 1.22 1.05 1.00 0.91 0.79 0.73 0.71 0.62 0.56 0.54
4.28 3.24 2.15 1.31 0.95 0.72 0.82 0.84 0.86 0.99 1.32 1.68 1.79 1.88 1.92 2.05 2.31 1.77 1.47 1.60 1.63 1.19 0.98 0.94 0.92 0.94 0.88 0.82 0.75 0.70 0.71 0.77 0.78 0.86 0.96 0.96 0.80 0.60 0.63 0.78 0.75 0.58 0.52 0.46
3.52 2.62 1.37 0.76 0.54 0.60 0.46 0.60 0.73 0.82 1.06 1.42 1.83 1.90 1.88 1.83 1.67 1.52 1.27 1.25 1.08 1.06 1.09 1.09 0.99 0.95 0.93 0.92 0.86 0.80 0.78 0.79 0.85 0.82 0.89 0.80 0.82 0.88 0.89 0.75 0.80 0.71 0.60 0.56
3.45 1.63 0.87 0.70 0.56 0.50 0.46 0.47 0.49 0.60 0.84 1.10 1.46 1.66 1.27 1.38 1.37 1.07 0.96 1.13 1.12 1.01 0.88 0.78 0.78 0.71 0.73 0.74 0.65 0.62 0.60 0.55 0.60 0.70 0.80 0.92 0.99 0.93 0.84 0.78 0.94 0.87 0.90 0.91